Location: Kaltenbach
(49.2000°N, 7.7500°E)
Time: 10:35:54
(UTC+00:00)

Cosmos 1300 - Pass Details

Date: 24 January 2020
Orbit: 511 x 515 km, 82.5° (Epoch: 18 February)

Event Time Altitude Azimuth Distance (km) Brightness Sun altitude
Rises 16:56:06 0° 347° (NNW) 2,640 6.2 -7.4°
Reaches altitude 10° 16:58:16 10° 344° (NNW) 1,748 5.3 -7.7°
Maximum altitude 17:02:02 62° 264° (W) 584 3.3 -8.3°
Drops below altitude 10° 17:05:47 10° 183° (S) 1,731 5.7 -8.9°
Sets 17:07:55 0° 180° (S) 2,611 6.5 -9.2°
